Location: Chena
(64.8152°N, 147.9227°W)
Time: 01:45:34
(UTC+00:00)

Vanguard 2 - Pass Details

Date: 07 March 2021
Orbit: 552 x 2938 km, 32.9° (Epoch: 10 April)

Event Time Altitude Azimuth Distance (km) Brightness Sun altitude
Exits shadow 13:16:13 - 190° (S) 5,100 11.3 -21.2°
Reaches altitude 10° 13:16:58 10° 187° (S) 5,062 11.3 -21.1°
Maximum altitude 13:23:26 14° 161° (SSE) 5,074 11.5 -20.6°
Drops below altitude 10° 13:30:33 10° 136° (SE) 5,682 12.1 -19.9°
Sets 13:38:27 0° 117° (ESE) 6,792 12.8 -19.2°
